| time (UTC) | temp C | wind direction | speed KPH | gust KPH | rain 1hr cm | rain 24hr cm | rain mn cm | humidity % | barometer mb |
| 20260507073839 | 11 | 210 | 0.0 | 4.8 | 0.00 | 0.00 | 0.00 | 74 | |
| 20260507073339 | 11 | 303 | 1.6 | 8.0 | 0.00 | 0.00 | 0.00 | 74 | |
| 20260507072839 | 11 | 316 | 1.6 | 4.8 | 0.00 | 0.00 | 0.00 | 75 | |
| 20260507072339 | 11 | 11 | 0.0 | 4.8 | 0.00 | 0.00 | 0.00 | 75 | |
| 20260507071838 | 11 | 7 | 0.0 | 6.4 | 0.00 | 0.00 | 0.00 | 76 | |
| 20260507071338 | 11 | 9 | 0.0 | 6.4 | 0.00 | 0.00 | 0.00 | 76 | |
| 20260507070838 | 11 | 26 | 0.0 | 6.4 | 0.00 | 0.00 | 0.00 | 76 | |
| 20260507070337 | 11 | 191 | 0.0 | 4.8 | 0.00 | 0.00 | 0.00 | 76 | |
| 20260507065837 | 11 | 270 | 0.0 | 3.2 | 0.00 | 0.00 | 0.00 | 76 | |
| 20260507065337 | 10 | 286 | 0.0 | 6.4 | 0.00 | 0.00 | 0.00 | 76 | |
| 20260507064836 | 10 | 258 | 3.2 | 9.7 | 0.00 | 0.00 | 0.00 | 76 | |
| 20260507064336 | 10 | 15 | 0.0 | 6.4 | 0.00 | 0.00 | 0.00 | 77 | |
| 20260507063836 | 10 | 302 | 1.6 | 9.7 | 0.00 | 0.00 | 0.00 | 77 | |
| 20260507063336 | 10 | 40 | 3.2 | 9.7 | 0.00 | 0.00 | 0.00 | 77 | |
| 20260507062835 | 10 | 2 | 0.0 | 11.3 | 0.00 | 0.00 | 0.00 | 78 | |
| 20260507062335 | 10 | 14 | 0.0 | 11.3 | 0.00 | 0.00 | 0.00 | 78 | |
| 20260507061835 | 11 | 29 | 6.4 | 11.3 | 0.00 | 0.00 | 0.00 | 78 | |
| 20260507061334 | 10 | 32 | 6.4 | 6.4 | 0.00 | 0.00 | 0.00 | 78 | |
| 20260507060834 | 10 | 11 | 0.0 | 6.4 | 0.00 | 0.00 | 0.00 | 79 | |
| 20260507060334 | 10 | 340 | 4.8 | 9.7 | 0.00 | 0.00 | 0.00 | 79 | |
| 20260507055834 | 10 | 324 | 0.0 | 1.6 | 0.00 | 0.00 | 0.00 | 80 | |
| 20260507055333 | 10 | 285 | 0.0 | 0.0 | 0.00 | 0.00 | 0.00 | 80 | |
| 20260507054833 | 10 | 285 | 0.0 | 0.0 | 0.00 | 0.00 | 0.00 | 80 | |
| 20260507054333 | 10 | 285 | 0.0 | 0.0 | 0.00 | 0.00 | 0.00 | 80 | |
| 20260507053832 | 10 | 285 | 0.0 | 0.0 | 0.00 | 0.00 | 0.00 | 80 | |
| 20260507053332 | 10 | 285 | 0.0 | 0.0 | 0.00 | 0.00 | 0.00 | 80 | |
| 20260507052832 | 10 | 285 | 0.0 | 0.0 | 0.00 | 0.00 | 0.00 | 80 | |
| 20260507052331 | 10 | 285 | 0.0 | 0.0 | 0.00 | 0.00 | 0.00 | 80 | |
| 20260507051831 | 10 | 285 | 0.0 | 6.4 | 0.00 | 0.00 | 0.00 | 80 | |
| 20260507051331 | 10 | 265 | 0.0 | 1.6 | 0.00 | 0.00 | 0.00 | 81 | |
| 20260507050831 | 10 | 265 | 0.0 | 0.0 | 0.00 | 0.00 | 0.00 | 80 | |
| 20260507050330 | 10 | 8 | 0.0 | 0.0 | 0.00 | 0.00 | 0.00 | 80 | |
| 20260507045830 | 10 | 8 | 0.0 | 8.0 | 0.00 | 0.00 | 0.00 | 80 | |
| 20260507045330 | 10 | 49 | 6.4 | 9.7 | 0.00 | 0.00 | 0.00 | 80 | |
| 20260507044829 | 10 | 274 | 0.0 | 3.2 | 0.00 | 0.00 | 0.00 | 80 | |
| 20260507044329 | 10 | 284 | 0.0 | 4.8 | 0.00 | 0.00 | 0.00 | 80 | |
| 20260507043829 | 10 | 240 | 0.0 | 3.2 | 0.00 | 0.00 | 0.00 | 80 | |
| 20260507043328 | 10 | 322 | 1.6 | 3.2 | 0.00 | 0.00 | 0.00 | 80 | |
| 20260507042828 | 10 | 217 | 0.0 | 0.0 | 0.00 | 0.00 | 0.00 | 80 | |
| 20260507042328 | 10 | 217 | 0.0 | 0.0 | 0.00 | 0.00 | 0.00 | 80 | |
| 20260507041828 | 10 | 217 | 0.0 | 0.0 | 0.00 | 0.00 | 0.00 | 80 | |
| 20260507041327 | 10 | 217 | 0.0 | 0.0 | 0.00 | 0.00 | 0.00 | 80 | |
| 20260507040827 | 10 | 217 | 0.0 | 0.0 | 0.00 | 0.00 | 0.00 | 80 | |
| 20260507040327 | 10 | 217 | 0.0 | 0.0 | 0.00 | 0.00 | 0.00 | 80 | |
| 20260507035826 | 10 | 217 | 0.0 | 0.0 | 0.00 | 0.00 | 0.00 | 80 | |
| 20260507035326 | 10 | 217 | 0.0 | 3.2 | 0.00 | 0.00 | 0.00 | 80 | |
| 20260507034826 | 10 | 352 | 0.0 | 3.2 | 0.00 | 0.00 | 0.00 | 80 | |
| 20260507034326 | 10 | 272 | 0.0 | 1.6 | 0.00 | 0.00 | 0.00 | 80 | |
| 20260507033825 | 10 | 278 | 0.0 | 1.6 | 0.00 | 0.00 | 0.00 | 80 | |
| 20260507033325 | 10 | 347 | 0.0 | 4.8 | 0.00 | 0.00 | 0.00 | 80 | |
| 20260507032825 | 10 | 338 | 0.0 | 6.4 | 0.00 | 0.00 | 0.00 | 80 | |
| 20260507032324 | 10 | 348 | 0.0 | 0.0 | 0.00 | 0.00 | 0.00 | 81 | |
| 20260507031824 | 10 | 348 | 0.0 | 3.2 | 0.00 | 0.00 | 0.00 | 81 | |
| 20260507031324 | 10 | 274 | 0.0 | 4.8 | 0.00 | 0.00 | 0.00 | 81 | |
| 20260507030823 | 10 | 299 | 0.0 | 0.0 | 0.00 | 0.00 | 0.00 | 81 | |
| 20260507030323 | 10 | 299 | 0.0 | 0.0 | 0.00 | 0.00 | 0.00 | 80 | |
| 20260507025823 | 10 | 299 | 0.0 | 1.6 | 0.00 | 0.00 | 0.00 | 81 | |
| 20260507025323 | 10 | 4 | 0.0 | 0.0 | 0.00 | 0.00 | 0.00 | 80 | |
| 20260507024822 | 10 | 4 | 0.0 | 0.0 | 0.00 | 0.00 | 0.00 | 81 | |
| 20260507024322 | 10 | 4 | 0.0 | 0.0 | 0.00 | 0.00 | 0.00 | 80 | |
| 20260507023822 | 10 | 4 | 0.0 | 8.0 | 0.00 | 0.00 | 0.00 | 80 | |
| 20260507023321 | 10 | 226 | 0.0 | 0.0 | 0.00 | 0.00 | 0.00 | 81 | |
| 20260507022821 | 10 | 226 | 0.0 | 3.2 | 0.00 | 0.00 | 0.00 | 81 | |
| 20260507022321 | 10 | 209 | 0.0 | 0.0 | 0.00 | 0.00 | 0.00 | 81 | |
| 20260507021821 | 10 | 209 | 0.0 | 0.0 | 0.00 | 0.00 | 0.00 | 80 | |
| 20260507021320 | 10 | 209 | 0.0 | 4.8 | 0.00 | 0.00 | 0.00 | 80 | |
| 20260507020820 | 10 | 334 | 3.2 | 4.8 | 0.00 | 0.00 | 0.00 | 81 | |
| 20260507020320 | 10 | 317 | 0.0 | 6.4 | 0.00 | 0.00 | 0.00 | 81 | |
| 20260507015819 | 10 | 319 | 0.0 | 6.4 | 0.00 | 0.00 | 0.00 | 81 | |
| 20260507015319 | 10 | 343 | 1.6 | 6.4 | 0.00 | 0.00 | 0.00 | 81 | |
| 20260507014819 | 10 | 324 | 1.6 | 11.3 | 0.00 | 0.00 | 0.00 | 81 | |
| 20260507014318 | 10 | 312 | 0.0 | 9.7 | 0.00 | 0.00 | 0.00 | 81 | |
| 20260507013818 | 10 | 299 | 0.0 | 8.0 | 0.00 | 0.00 | 0.00 | 81 | |
| 20260507013318 | 10 | 312 | 1.6 | 6.4 | 0.00 | 0.00 | 0.00 | 82 | |
| 20260507012818 | 10 | 84 | 0.0 | 0.0 | 0.00 | 0.00 | 0.00 | 82 | |
| 20260507012317 | 10 | 84 | 0.0 | 3.2 | 0.00 | 0.00 | 0.00 | 82 | |
| 20260507011817 | 10 | 354 | 0.0 | 0.0 | 0.00 | 0.00 | 0.00 | 82 | |
| 20260507011317 | 10 | 354 | 0.0 | 3.2 | 0.00 | 0.00 | 0.00 | 82 | |
| 20260507010816 | 10 | 178 | 0.0 | 3.2 | 0.00 | 0.00 | 0.00 | 82 | |
| 20260507010316 | 10 | 180 | 0.0 | 3.2 | 0.00 | 0.00 | 0.00 | 82 | |
| 20260507005816 | 10 | 4 | 0.0 | 8.0 | 0.00 | 0.00 | 0.00 | 82 | |
| 20260507005316 | 10 | 199 | 1.6 | 9.7 | 0.00 | 0.00 | 0.00 | 82 | |
| 20260507004815 | 10 | 302 | 0.0 | 0.0 | 0.00 | 0.00 | 0.00 | 82 | |
| 20260507004315 | 10 | 234 | 0.0 | 0.0 | 0.00 | 0.00 | 0.00 | 82 | |
| 20260507003815 | 10 | 234 | 0.0 | 6.4 | 0.00 | 0.00 | 0.00 | 82 | |
| 20260507003314 | 10 | 39 | 3.2 | 8.0 | 0.00 | 0.00 | 0.00 | 82 | |
| 20260507002814 | 10 | 307 | 0.0 | 3.2 | 0.00 | 0.00 | 0.00 | 82 | |
| 20260507002314 | 10 | 329 | 0.0 | 0.0 | 0.00 | 0.00 | 0.00 | 82 | |
| 20260507001813 | 10 | 0 | 0.0 | 6.4 | 0.00 | 0.00 | 0.00 | 83 | |
| 20260507001313 | 10 | 319 | 6.4 | 6.4 | 0.00 | 0.00 | 0.00 | 83 | |
| 20260507000813 | 10 | 274 | 0.0 | 12.9 | 0.00 | 0.00 | 0.00 | 82 | |
| 20260507000314 | 10 | 12 | 6.4 | 14.5 | 0.00 | 0.00 | 0.00 | 83 | |
| 20260506235812 | 10 | 317 | 0.0 | 0.0 | 0.00 | 0.00 | 0.00 | 84 | |
| 20260506235312 | 10 | 317 | 0.0 | 6.4 | 0.00 | 0.00 | 0.00 | 84 | |
| 20260506234812 | 10 | 1 | 0.0 | 3.2 | 0.00 | 0.00 | 0.00 | 84 | |
| 20260506234311 | 10 | 208 | 0.0 | 8.0 | 0.00 | 0.00 | 0.00 | 84 | |
| 20260506233811 | 10 | 323 | 1.6 | 6.4 | 0.00 | 0.00 | 0.00 | 84 | |
| 20260506233311 | 10 | 4 | 0.0 | 4.8 | 0.00 | 0.00 | 0.00 | 84 | |
| 20260506232811 | 10 | 247 | 4.8 | 6.4 | 0.00 | 0.00 | 0.00 | 84 | |
| 20260506232310 | 10 | 250 | 1.6 | 9.7 | 0.00 | 0.00 | 0.00 | 84 | |
| 20260506231810 | 10 | 345 | 0.0 | 6.4 | 0.00 | 0.00 | 0.00 | 84 | |
| 20260506231310 | 10 | 275 | 0.0 | 9.7 | 0.00 | 0.00 | 0.00 | 84 | |
| 20260506230809 | 10 | 293 | 0.0 | 4.8 | 0.00 | 0.00 | 0.00 | 84 | |
| 20260506230309 | 10 | 244 | 0.0 | 1.6 | 0.00 | 0.00 | 0.00 | 84 | |
| 20260506225809 | 11 | 244 | 0.0 | 3.2 | 0.00 | 0.00 | 0.00 | 84 | |
| 20260506225308 | 11 | 320 | 0.0 | 4.8 | 0.00 | 0.00 | 0.00 | 84 | |
| 20260506224808 | 10 | 255 | 0.0 | 1.6 | 0.00 | 0.00 | 0.00 | 84 | |
| 20260506224308 | 10 | 5 | 0.0 | 6.4 | 0.00 | 0.00 | 0.00 | 84 | |
| 20260506223808 | 10 | 232 | 0.0 | 6.4 | 0.00 | 0.00 | 0.00 | 83 | |
| 20260506223307 | 11 | 220 | 0.0 | 6.4 | 0.00 | 0.00 | 0.00 | 83 | |
| 20260506222807 | 10 | 303 | 0.0 | 3.2 | 0.00 | 0.00 | 0.00 | 84 | |
| 20260506222307 | 11 | 264 | 0.0 | 3.2 | 0.00 | 0.00 | 0.00 | 83 | |
| 20260506221806 | 11 | 312 | 0.0 | 4.8 | 0.00 | 0.00 | 0.00 | 83 | |
| 20260506221306 | 11 | 347 | 0.0 | 0.0 | 0.00 | 0.00 | 0.00 | 83 | |
| 20260506220806 | 11 | 347 | 0.0 | 0.0 | 0.00 | 0.00 | 0.00 | 83 | |
| 20260506220305 | 11 | 347 | 0.0 | 0.0 | 0.00 | 0.00 | 0.00 | 83 | |
| 20260506215805 | 11 | 347 | 0.0 | 0.0 | 0.00 | 0.00 | 0.00 | 83 | |
| 20260506215306 | 11 | 347 | 0.0 | 0.0 | 0.00 | 0.00 | 0.00 | 83 | |
| 20260506214805 | 11 | 347 | 0.0 | 0.0 | 0.00 | 0.00 | 0.00 | 83 | |
| 20260506214304 | 11 | 347 | 0.0 | 0.0 | 0.00 | 0.00 | 0.00 | 83 | |
| 20260506213804 | 11 | 347 | 0.0 | 0.0 | 0.00 | 0.00 | 0.00 | 83 | |
| 20260506213304 | 11 | 347 | 0.0 | 3.2 | 0.00 | 0.00 | 0.00 | 83 | |
| 20260506212803 | 11 | 319 | 0.0 | 0.0 | 0.00 | 0.00 | 0.00 | 83 | |
| 20260506212306 | 11 | 319 | 0.0 | 6.4 | 0.00 | 0.00 | 0.00 | 83 | |
| 20260506211803 | 11 | 347 | 0.0 | 8.0 | 0.00 | 0.00 | 0.00 | 83 | |
| 20260506211303 | 11 | 49 | 3.2 | 8.0 | 0.00 | 0.00 | 0.00 | 83 | |
| 20260506210802 | 11 | 351 | 0.0 | 6.4 | 0.00 | 0.00 | 0.00 | 83 | |
| 20260506210302 | 11 | 267 | 0.0 | 1.6 | 0.00 | 0.00 | 0.00 | 83 | |
| 20260506205802 | 11 | 265 | 0.0 | 0.0 | 0.00 | 0.00 | 0.00 | 83 | |
| 20260506205305 | 11 | 265 | 0.0 | 4.8 | 0.00 | 0.00 | 0.00 | 83 | |
| 20260506204801 | 11 | 278 | 0.0 | 0.0 | 0.00 | 0.00 | 0.00 | 82 | |
| 20260506204301 | 11 | 278 | 0.0 | 3.2 | 0.00 | 0.00 | 0.00 | 82 | |
| 20260506203801 | 11 | 1 | 1.6 | 4.8 | 0.00 | 0.00 | 0.00 | 82 | |
| 20260506203300 | 11 | 326 | 0.0 | 4.8 | 0.00 | 0.00 | 0.00 | 82 | |
| 20260506202800 | 11 | 267 | 1.6 | 6.4 | 0.00 | 0.00 | 0.00 | 82 | |
| 20260506202300 | 11 | 78 | 0.0 | 4.8 | 0.00 | 0.00 | 0.00 | 82 | |
| 20260506201759 | 11 | 358 | 0.0 | 6.4 | 0.00 | 0.00 | 0.00 | 82 | |
| 20260506201259 | 11 | 37 | 0.0 | 9.7 | 0.00 | 0.00 | 0.00 | 82 | |
| 20260506200759 | 11 | 350 | 0.0 | 6.4 | 0.00 | 0.00 | 0.00 | 82 | |
| 20260506200258 | 11 | 316 | 0.0 | 9.7 | 0.00 | 0.00 | 0.00 | 82 | |
| 20260506195758 | 11 | 33 | 0.0 | 6.4 | 0.00 | 0.00 | 0.00 | 82 | |
| 20260506195258 | 11 | 345 | 1.6 | 11.3 | 0.00 | 0.00 | 0.00 | 82 | |
| 20260506194758 | 11 | 262 | 8.0 | 12.9 | 0.00 | 0.00 | 0.00 | 82 | |
| 20260506194257 | 11 | 4 | 0.0 | 4.8 | 0.00 | 0.00 | 0.00 | 82 | |
| 20260506193757 | 11 | 345 | 0.0 | 6.4 | 0.00 | 0.00 | 0.00 | 82 | |
| 20260506193257 | 11 | 316 | 3.2 | 9.7 | 0.00 | 0.00 | 0.00 | 82 | |
| 20260506192756 | 11 | 351 | 1.6 | 9.7 | 0.00 | 0.00 | 0.00 | 81 | |
| 20260506192256 | 12 | 251 | 0.0 | 11.3 | 0.00 | 0.00 | 0.00 | 81 | |
| 20260506191756 | 12 | 0 | 3.2 | 8.0 | 0.00 | 0.00 | 0.00 | 81 | |
| 20260506191255 | 12 | 223 | 0.0 | 0.0 | 0.00 | 0.00 | 0.00 | 81 | |
| 20260506190755 | 12 | 223 | 0.0 | 8.0 | 0.00 | 0.00 | 0.00 | 82 | |
| 20260506190255 | 12 | 264 | 0.0 | 11.3 | 0.00 | 0.00 | 0.00 | 81 | |
| 20260506185755 | 12 | 331 | 0.0 | 6.4 | 0.00 | 0.00 | 0.00 | 81 | |
| 20260506185254 | 12 | 270 | 4.8 | 4.8 | 0.00 | 0.00 | 0.00 | 81 | |
| 20260506184754 | 12 | 253 | 0.0 | 3.2 | 0.00 | 0.00 | 0.00 | 80 | |
| 20260506184254 | 12 | 258 | 0.0 | 8.0 | 0.00 | 0.00 | 0.00 | 80 | |
| 20260506183753 | 12 | 198 | 0.0 | 9.7 | 0.00 | 0.00 | 0.00 | 80 | |
| 20260506183253 | 12 | 295 | 0.0 | 3.2 | 0.00 | 0.00 | 0.00 | 79 | |
| 20260506182753 | 13 | 18 | 0.0 | 4.8 | 0.00 | 0.00 | 0.00 | 79 | |
| 20260506182253 | 12 | 14 | 3.2 | 6.4 | 0.00 | 0.00 | 0.00 | 79 | |
| 20260506181752 | 13 | 341 | 1.6 | 8.0 | 0.00 | 0.00 | 0.00 | 79 | |
| 20260506181252 | 13 | 257 | 0.0 | 9.7 | 0.00 | 0.00 | 0.00 | 79 | |
| 20260506180752 | 13 | 16 | 1.6 | 6.4 | 0.00 | 0.00 | 0.00 | 79 | |
| 20260506180251 | 13 | 16 | 1.6 | 3.2 | 0.00 | 0.00 | 0.00 | 80 | |
| 20260506175751 | 13 | 340 | 0.0 | 8.0 | 0.00 | 0.00 | 0.00 | 80 | |
| 20260506175251 | 13 | 333 | 0.0 | 8.0 | 0.00 | 0.00 | 0.00 | 81 | |
| 20260506174751 | 13 | 358 | 4.8 | 6.4 | 0.00 | 0.00 | 0.00 | 81 | |
| 20260506174250 | 13 | 265 | 0.0 | 9.7 | 0.00 | 0.00 | 0.00 | 81 | |
| 20260506173750 | 13 | 261 | 1.6 | 9.7 | 0.00 | 0.00 | 0.00 | 82 | |
| 20260506173250 | 13 | 312 | 0.0 | 6.4 | 0.00 | 0.00 | 0.00 | 82 | |
| 20260506172749 | 13 | 293 | 0.0 | 9.7 | 0.00 | 0.00 | 0.00 | 81 | |
| 20260506172249 | 13 | 357 | 4.8 | 9.7 | 0.00 | 0.00 | 0.00 | 82 | |
| 20260506171749 | 13 | 237 | 0.0 | 0.0 | 0.00 | 0.00 | 0.00 | 83 | |
| 20260506171248 | 13 | 237 | 0.0 | 0.0 | 0.00 | 0.00 | 0.00 | 83 | |
| 20260506170748 | 13 | 237 | 0.0 | 4.8 | 0.00 | 0.00 | 0.00 | 83 | |
| 20260506170248 | 13 | 292 | 3.2 | 6.4 | 0.00 | 0.00 | 0.00 | 83 | |
| 20260506165748 | 13 | 285 | 1.6 | 6.4 | 0.00 | 0.00 | 0.00 | 83 | |
| 20260506165247 | 13 | 341 | 1.6 | 12.9 | 0.00 | 0.00 | 0.00 | 83 | |
| 20260506164747 | 13 | 322 | 0.0 | 11.3 | 0.00 | 0.00 | 0.00 | 83 | |
| 20260506164247 | 13 | 336 | 9.7 | 14.5 | 0.00 | 0.00 | 0.00 | 83 | |
| 20260506163746 | 13 | 347 | 0.0 | 11.3 | 0.00 | 0.00 | 0.00 | 82 | |
| 20260506163246 | 13 | 1 | 11.3 | 14.5 | 0.00 | 0.00 | 0.00 | 82 | |
| 20260506162746 | 13 | 258 | 0.0 | 3.2 | 0.00 | 0.00 | 0.00 | 83 | |
| 20260506162245 | 13 | 208 | 0.0 | 0.0 | 0.00 | 0.00 | 0.00 | 82 | |
| 20260506161745 | 14 | 208 | 0.0 | 6.4 | 0.00 | 0.00 | 0.00 | 82 | |
| 20260506161245 | 14 | 296 | 0.0 | 6.4 | 0.00 | 0.00 | 0.00 | 82 | |
| 20260506160745 | 14 | 350 | 6.4 | 6.4 | 0.00 | 0.00 | 0.00 | 82 | |
| 20260506160244 | 14 | 317 | 0.0 | 8.0 | 0.00 | 0.00 | 0.00 | 82 | |
| 20260506155744 | 14 | 215 | 0.0 | 8.0 | 0.00 | 0.00 | 0.00 | 81 | |
| 20260506155244 | 14 | 344 | 0.0 | 8.0 | 0.00 | 0.00 | 0.00 | 82 | |
| 20260506154743 | 15 | 352 | 3.2 | 4.8 | 0.00 | 0.00 | 0.00 | 83 | |
| 20260506154243 | 14 | 281 | 0.0 | 8.0 | 0.00 | 0.00 | 0.00 | 82 | |
| 20260506153743 | 15 | 70 | 0.0 | 8.0 | 0.00 | 0.00 | 0.00 | 81 | |
| 20260506153243 | 15 | 329 | 3.2 | 8.0 | 0.00 | 0.00 | 0.00 | 81 | |
| 20260506152742 | 15 | 295 | 1.6 | 12.9 | 0.00 | 0.00 | 0.00 | 81 | |
| 20260506152242 | 15 | 334 | 3.2 | 8.0 | 0.00 | 0.00 | 0.00 | 82 | |
| 20260506151742 | 15 | 300 | 0.0 | 6.4 | 0.00 | 0.00 | 0.00 | 83 | |
| 20260506151241 | 15 | 275 | 0.0 | 4.8 | 0.00 | 0.00 | 0.00 | 82 | |
| 20260506150741 | 15 | 319 | 0.0 | 1.6 | 0.00 | 0.00 | 0.00 | 82 | |
| 20260506150241 | 15 | 331 | 0.0 | 3.2 | 0.00 | 0.00 | 0.00 | 81 | |
| 20260506145741 | 15 | 305 | 0.0 | 1.6 | 0.00 | 0.00 | 0.00 | 81 | |
| 20260506145240 | 15 | 8 | 0.0 | 0.0 | 0.00 | 0.00 | 0.00 | 82 | |
| 20260506144740 | 15 | 8 | 0.0 | 0.0 | 0.00 | 0.00 | 0.00 | 82 | |
| 20260506144240 | 15 | 8 | 0.0 | 3.2 | 0.00 | 0.00 | 0.00 | 82 | |
| 20260506143739 | 15 | 170 | 0.0 | 4.8 | 0.00 | 0.00 | 0.00 | 81 | |
| 20260506143239 | 15 | 244 | 0.0 | 3.2 | 0.00 | 0.00 | 0.00 | 80 | |
| 20260506142739 | 15 | 28 | 0.0 | 4.8 | 0.00 | 0.00 | 0.00 | 80 | |
| 20260506142238 | 15 | 260 | 3.2 | 3.2 | 0.00 | 0.00 | 0.00 | 80 | |
| 20260506141738 | 15 | 246 | 0.0 | 19.3 | 0.00 | 0.00 | 0.00 | 79 | |
| 20260506141238 | 16 | 243 | 6.4 | 17.7 | 0.00 | 0.00 | 0.00 | 76 | |
| 20260506140738 | 16 | 223 | 9.7 | 11.3 | 0.00 | 0.00 | 0.00 | 76 | |
| 20260506140237 | 16 | 267 | 1.6 | 16.1 | 0.00 | 0.00 | 0.00 | 75 | |
| 20260506135737 | 16 | 189 | 0.0 | 8.0 | 0.00 | 0.00 | 0.00 | 76 | |
| 20260506135237 | 16 | 9 | 0.0 | 14.5 | 0.00 | 0.00 | 0.00 | 75 | |
| 20260506134736 | 16 | 272 | 6.4 | 8.0 | 0.00 | 0.00 | 0.00 | 76 | |
| 20260506134236 | 16 | 262 | 0.0 | 9.7 | 0.00 | 0.00 | 0.00 | 76 | |
| 20260506133736 | 16 | 253 | 0.0 | 8.0 | 0.00 | 0.00 | 0.00 | 76 | |
| 20260506133235 | 16 | 244 | 4.8 | 11.3 | 0.00 | 0.00 | 0.00 | 75 | |
| 20260506132735 | 16 | 203 | 0.0 | 9.7 | 0.00 | 0.00 | 0.00 | 74 | |
| 20260506132235 | 17 | 192 | 1.6 | 6.4 | 0.00 | 0.00 | 0.00 | 68 | |
| 20260506131735 | 17 | 305 | 0.0 | 6.4 | 0.00 | 0.00 | 0.00 | 66 | |
| 20260506131234 | 17 | 355 | 3.2 | 8.0 | 0.00 | 0.00 | 0.00 | 66 | |
| 20260506130734 | 17 | 23 | 0.0 | 6.4 | 0.00 | 0.00 | 0.00 | 66 | |
| 20260506130234 | 17 | 74 | 0.0 | 1.6 | 0.00 | 0.00 | 0.00 | 67 | |
| 20260506125733 | 16 | 15 | 0.0 | 4.8 | 0.00 | 0.00 | 0.00 | 67 | |
| 20260506125233 | 16 | 340 | 0.0 | 8.0 | 0.00 | 0.00 | 0.00 | 67 | |
| 20260506124733 | 17 | 357 | 3.2 | 9.7 | 0.00 | 0.00 | 0.00 | 67 | |
| 20260506124233 | 16 | 350 | 1.6 | 11.3 | 0.00 | 0.00 | 0.00 | 65 | |
| 20260506123732 | 17 | 291 | 9.7 | 11.3 | 0.00 | 0.00 | 0.00 | 63 | |
| 20260506123232 | 17 | 28 | 3.2 | 12.9 | 0.00 | 0.00 | 0.00 | 61 | |
| 20260506122732 | 17 | 281 | 3.2 | 11.3 | 0.00 | 0.00 | 0.00 | 61 | |
| 20260506122231 | 17 | 188 | 1.6 | 12.9 | 0.00 | 0.00 | 0.00 | 60 | |
| 20260506121731 | 17 | 284 | 4.8 | 11.3 | 0.00 | 0.00 | 0.00 | 60 | |
| 20260506121231 | 17 | 258 | 8.0 | 14.5 | 0.00 | 0.00 | 0.00 | 60 | |
| 20260506120730 | 17 | 239 | 6.4 | 12.9 | 0.00 | 0.00 | 0.00 | 60 | |
| 20260506120230 | 17 | 307 | 1.6 | 16.1 | 0.00 | 0.00 | 0.00 | 58 | |
| 20260506115730 | 17 | 127 | 1.6 | 12.9 | 0.00 | 0.00 | 0.00 | 58 | |
| 20260506115230 | 17 | 172 | 0.0 | 14.5 | 0.00 | 0.00 | 0.00 | 59 | |
| 20260506114729 | 17 | 264 | 4.8 | 12.9 | 0.00 | 0.00 | 0.00 | 59 | |
| 20260506114229 | 17 | 195 | 0.0 | 9.7 | 0.00 | 0.00 | 0.00 | 58 | |
| 20260506113729 | 18 | 299 | 1.6 | 9.7 | 0.00 | 0.00 | 0.00 | 58 | |
| 20260506113228 | 17 | 284 | 6.4 | 14.5 | 0.00 | 0.00 | 0.00 | 60 | |
| 20260506112728 | 17 | 251 | 3.2 | 8.0 | 0.00 | 0.00 | 0.00 | 61 | |
| 20260506112228 | 17 | 257 | 0.0 | 8.0 | 0.00 | 0.00 | 0.00 | 62 | |
| 20260506111728 | 17 | 251 | 8.0 | 11.3 | 0.00 | 0.00 | 0.00 | 61 | |
| 20260506111227 | 17 | 175 | 0.0 | 6.4 | 0.00 | 0.00 | 0.00 | 61 | |
| 20260506110727 | 17 | 254 | 1.6 | 11.3 | 0.00 | 0.00 | 0.00 | 61 | |
| 20260506110227 | 17 | 262 | 3.2 | 9.7 | 0.00 | 0.00 | 0.00 | 62 | |
| 20260506105726 | 17 | 237 | 8.0 | 8.0 | 0.00 | 0.00 | 0.00 | 61 | |
| 20260506105226 | 17 | 236 | 4.8 | 8.0 | 0.00 | 0.00 | 0.00 | 62 | |
| 20260506104726 | 17 | 232 | 1.6 | 12.9 | 0.00 | 0.00 | 0.00 | 62 | |
| 20260506104225 | 17 | 198 | 0.0 | 14.5 | 0.00 | 0.00 | 0.00 | 65 | |
| 20260506103725 | 16 | 163 | 1.6 | 14.5 | 0.00 | 0.00 | 0.00 | 65 | |
| 20260506103225 | 16 | 284 | 6.4 | 9.7 | 0.00 | 0.00 | 0.00 | 65 | |
| 20260506102725 | 16 | 316 | 3.2 | 11.3 | 0.00 | 0.00 | 0.00 | 66 | |
| 20260506102224 | 16 | 310 | 4.8 | 6.4 | 0.00 | 0.00 | 0.00 | 66 | |
| 20260506101724 | 16 | 265 | 1.6 | 11.3 | 0.00 | 0.00 | 0.00 | 65 | |
| 20260506101224 | 16 | 234 | 8.0 | 12.9 | 0.00 | 0.00 | 0.00 | 66 | |
| 20260506100723 | 16 | 258 | 4.8 | 9.7 | 0.00 | 0.00 | 0.00 | 68 | |
| 20260506100223 | 16 | 289 | 8.0 | 12.9 | 0.00 | 0.00 | 0.00 | 69 | |
| 20260506095723 | 16 | 271 | 4.8 | 8.0 | 0.00 | 0.00 | 0.00 | 68 | |
| 20260506095222 | 16 | 261 | 3.2 | 11.3 | 0.00 | 0.00 | 0.00 | 67 | |
| 20260506094722 | 16 | 278 | 9.7 | 14.5 | 0.00 | 0.00 | 0.00 | 66 | |
| 20260506094222 | 16 | 282 | 4.8 | 11.3 | 0.00 | 0.00 | 0.00 | 66 | |
| 20260506093722 | 16 | 215 | 4.8 | 9.7 | 0.00 | 0.00 | 0.00 | 67 | |
| 20260506093221 | 16 | 296 | 1.6 | 11.3 | 0.00 | 0.00 | 0.00 | 68 | |
| 20260506092721 | 16 | 246 | 8.0 | 12.9 | 0.00 | 0.00 | 0.00 | 69 | |
| 20260506092221 | 15 | 233 | 3.2 | 8.0 | 0.00 | 0.00 | 0.00 | 70 | |
| 20260506091720 | 15 | 215 | 1.6 | 14.5 | 0.00 | 0.00 | 0.00 | 70 | |
| 20260506091220 | 15 | 240 | 6.4 | 9.7 | 0.00 | 0.00 | 0.00 | 69 | |
| 20260506090720 | 15 | 233 | 6.4 | 12.9 | 0.00 | 0.00 | 0.00 | 70 | |
| 20260506090220 | 15 | 281 | 11.3 | 11.3 | 0.00 | 0.00 | 0.00 | 69 | |
| 20260506085719 | 15 | 233 | 3.2 | 9.7 | 0.00 | 0.00 | 0.00 | 69 | |
| 20260506085219 | 16 | 317 | 0.0 | 6.4 | 0.00 | 0.00 | 0.00 | 70 | |
| 20260506084719 | 16 | 244 | 3.2 | 8.0 | 0.00 | 0.00 | 0.00 | 69 | |
| 20260506084218 | 16 | 195 | 0.0 | 12.9 | 0.00 | 0.00 | 0.00 | 69 | |
| 20260506083718 | 16 | 279 | 8.0 | 8.0 | 0.00 | 0.00 | 0.00 | 70 | |
| 20260506083218 | 16 | 223 | 1.6 | 8.0 | 0.00 | 0.00 | 0.00 | 70 | |
| 20260506082717 | 16 | 241 | 0.0 | 9.7 | 0.00 | 0.00 | 0.00 | 70 | |
| 20260506082217 | 16 | 253 | 6.4 | 11.3 | 0.00 | 0.00 | 0.00 | 70 | |
| 20260506081717 | 16 | 227 | 0.0 | 9.7 | 0.00 | 0.00 | 0.00 | 71 | |
| 20260506081217 | 16 | 277 | 6.4 | 9.7 | 0.00 | 0.00 | 0.00 | 72 | |
| 20260506080716 | 16 | 244 | 3.2 | 14.5 | 0.00 | 0.00 | 0.00 | 72 | |
| 20260506080216 | 15 | 241 | 3.2 | 11.3 | 0.00 | 0.00 | 0.00 | 71 |